[[{"header":{"parameterUnit":"m.s-1","parameterCategory":1,"la1":30.2991,"la2":30.254,"lo1":-89.0895,"lo2":-89.0444,"dy":0.0017,"dx":0.0017,"nx":28,"ny":28,"refTime":"2024-06-01T09:00:00:Z","depth":0,"parameterNumber":2,"parameterNumberName":"U-component_of_WINDS"},"data":[0,0,0,0,0,0,0,0,0,0,0,0,0,0,0,0,0,0,0,0,0,0,0,0,0,0,0,0,0,0,0,0,0,0,0,0,0,0,0,0,0,0,0,0,0,0,0,0,0,0,0,0,0,0,0,0,0,0,-4.0331,-4.0333,0,-4.0524,-4.0526,-4.0529,-4.0608,-4.0608,-4.0607,-4.0607,-4.0799,-4.0805,-4.081,0,0,0,0,0,0,0,0,0,0,0,0,0,-4.0024,-4.0029,-4.033,-4.0333,-4.0335,-4.0524,-4.0527,-4.0529,-4.0608,-4.0608,-4.0607,-4.0607,-4.0797,-4.0804,-4.0811,0,0,0,0,0,0,0,0,0,0,0,0,0,-4.0181,-4.0031,-4.033,-4.0398,-4.0406,-4.0523,-4.0527,-4.053,-4.0608,-4.0608,-4.0607,-4.0607,-4.0795,-4.0803,-4.0811,-4.0875,0,0,-4.0837,-4.084,0,0,0,0,0,0,0,0,-4.0172,-4.0192,-4.0385,-4.0393,-4.0402,-4.0542,-4.0489,-4.0645,-4.0608,-4.0531,-4.0607,-4.0606,-4.0714,-4.0728,-4.0766,-4.0884,-4.0892,-4.0837,-4.0842,-4.0846,-4.0848,0,0,0,0,0,0,0,-4.0161,-4.0184,-4.0407,-4.0388,-4.0398,-4.0417,-4.0438,-4.0519,-4.0623,-4.0538,-4.0544,-4.0566,-4.0718,-4.0758,-4.0771,-4.0895,-4.0837,-4.0844,-4.085,-4.0853,-4.1074,-4.1075,0,0,0,0,0,0,-4.014,-4.0175,-4.0401,-4.0413,-4.0284,-4.0423,-4.0447,-4.0497,-4.0623,-4.0641,-4.0567,-4.0569,-4.0744,-4.0761,-4.0778,-4.0861,-4.0846,-4.0854,-4.0858,-4.1074,-4.1075,-4.1076,0,0,0,0,0,0,-4.0133,-4.0159,-4.0393,-4.0296,-4.0327,-4.0429,-4.0485,-4.0501,-4.0542,-4.0644,-4.0663,-4.0588,-4.0744,-4.0767,-4.0851,-4.0869,-4.0857,-4.0865,-4.1072,-4.1074,-4.1075,-4.1026,0,0,0,0,0,0,-4.0124,-4.0156,-4.0182,-4.0296,-4.0332,-4.0463,-4.0486,-4.0506,-4.0556,-4.0562,-4.067,-4.0687,-4.0746,-4.0838,-4.0859,-4.088,-4.0871,-4.1071,-4.1073,-4.1075,-4.1027,-4.1026,-4.1025,0,0,0,0,0,-4.0113,-4.0159,-4.0183,-4.021,-4.0367,-4.0464,-4.0485,-4.0553,-4.0557,-4.0584,-4.065,-4.0684,-4.0863,-4.0846,-4.087,-4.0894,-4.107,-4.1073,-4.1075,-4.1027,-4.1026,-4.1025,0,0,0,0,0,0,-4.0043,-4.0175,-4.0203,-4.0289,-4.0365,-4.0478,-4.0513,-4.0549,-4.0624,-4.0626,-4.0706,-4.0729,-4.0807,-4.0859,-4.0837,-4.0962,-4.0969,-4.0976,-4.0925,-4.0925,-4.0924,-4.0909,-4.0878,0,0,0,0,0,-4.0038,-4.0108,-4.0219,-4.0284,-4.0321,-4.041,-4.0455,-4.0501,-4.0583,-4.0615,-4.0687,-4.0763,-4.0837,-4.0884,-4.0958,-4.1035,-4.1059,-4.1063,-4.1062,-4.1061,-4.1066,-4.1111,-4.1114,-4.1083,-4.1083,-4.1083,0,0,-4.0028,-4.0109,-4.0148,-4.0272,-4.0336,-4.0406,-4.0437,-4.0508,-4.056,-4.0625,-4.071,-4.0765,-4.0856,-4.0937,-4.0976,-4.0982,-4.108,-4.1064,-4.1062,-4.1068,-4.1113,-4.1116,-4.1119,-4.1084,-4.1084,-4.1084,0,0,-4.0044,-4.0113,-4.0175,-4.0239,-4.0337,-4.0397,-4.0411,-4.0519,-4.056,-4.0646,-4.0697,-4.0758,-4.0884,-4.0947,-4.0995,-4.1036,-4.107,-4.1058,-4.1053,-4.1096,-4.1099,-4.1101,-4.1116,-4.112,-4.1062,-4.1062,-4.1062,0,-4.0019,-4.0127,-4.0201,-4.0271,-4.0324,-4.0388,-4.045,-4.0509,-4.0625,-4.0659,-4.0665,-4.0825,-4.089,-4.0987,-4.0998,-4.1035,-4.1053,-4.1045,-4.1093,-4.1096,-4.1099,-4.1114,-4.112,-4.106,-4.106,-4.1061,-4.1061,0,-4.009,-4.0164,-4.0202,-4.0315,-4.0372,-4.0438,-4.052,-4.0569,-4.061,-4.0669,-4.0756,-4.0837,-4.0928,-4.0955,-4.0994,-4.1057,-4.1058,-4.1077,-4.1087,-4.1099,-4.1114,-4.1121,-4.1057,-4.1058,-4.1059,-4.1059,0,0,-4.0068,-4.0222,-4.0235,-4.0287,-4.0401,-4.0459,-4.0527,-4.0619,-4.0659,-4.0737,-4.0795,-4.0901,-4.092,-4.0974,-4.1022,-4.106,-4.1088,-4.1075,-4.1078,-4.1074,-4.1162,-4.1146,-4.1152,-4.1111,-4.1112,-4.1114,-4.1154,0,-4.01,-4.0227,-4.0296,-4.0393,-4.0462,-4.0524,-4.0584,-4.0659,-4.0715,-4.0781,-4.0843,-4.0916,-4.0936,-4.0969,-4.101,-4.1075,-4.1106,-4.1074,-4.1165,-4.1167,-4.114,-4.116,-4.1144,-4.1178,-4.1161,-4.1162,-4.1162,0,-4.0154,-4.0233,-4.0338,-4.0444,-4.0476,-4.0528,-4.0618,-4.068,-4.0767,-4.0805,-4.0867,-4.0915,-4.0988,-4.0992,-4.1093,-4.1069,-4.1111,-4.1149,-4.1152,-4.1163,-4.1165,-4.1171,-4.1191,-4.1196,-4.1173,-4.1172,-4.1171,0,-4.0127,-4.026,-4.034,-4.0383,-4.0509,-4.0544,-4.0598,-4.0684,-4.0735,-4.0813,-4.0847,-4.0931,-4.0977,-4.1041,-4.111,-4.1106,-4.1204,-4.1214,-4.1237,-4.1235,-4.1254,-4.1252,-4.1281,-4.1281,-4.1281,-4.1281,-4.1281,0,-4.0155,-4.0216,-4.033,-4.0379,-4.0449,-4.0527,-4.0594,-4.0653,-4.0729,-4.079,-4.0848,-4.0904,-4.0992,-4.1057,-4.1112,-4.1187,-4.1207,-4.124,-4.1253,-4.1234,-4.123,-4.1262,-4.1261,-4.1282,-4.1282,-4.1282,-4.1282,0,-4.0137,-4.0215,-4.0307,-4.0419,-4.0449,-4.0496,-4.0591,-4.0641,-4.0701,-4.0777,-4.0799,-4.0892,-4.0973,-4.1049,-4.1155,-4.1192,-4.1268,-4.1286,-4.1239,-4.1247,-4.1266,-4.1263,-4.1316,-4.1327,-4.1319,-4.1319,-4.1319,0,-4.015,-4.0199,-4.0317,-4.0363,-4.0416,-4.0489,-4.0542,-4.062,-4.0673,-4.0776,-4.0812,-4.0898,-4.097,-4.1096,-4.1173,-4.1255,-4.1275,-4.1288,-4.1287,-4.1267,-4.1275,-4.1271,-4.1276,-4.1286,-4.1286,-4.1285,-4.1285,0,-4.0164,-4.0201,-4.0275,-4.0364,-4.0426,-4.0499,-4.0574,-4.0607,-4.07,-4.0756,-4.084,-4.0896,-4.1007,-4.1091,-4.1182,-4.1236,-4.1276,-4.1285,-4.1295,-4.1276,-4.1247,-4.1263,-4.1235,-4.1283,-4.1283,-4.1284,-4.1284,-4.1284,-4.0162,-4.0209,-4.0299,-4.0381,-4.0446,-4.0515,-4.0567,-4.0634,-4.0706,-4.0804,-4.0846,-4.0931,-4.1016,-4.1143,-4.1197,-4.1264,-4.1273,-4.1287,-4.129,-4.1292,-4.1288,-4.1237,-4.1281,-4.1281,-4.1281,-4.1281,-4.1281,0,-4.0179,-4.0241,-4.0315,-4.0419,-4.0483,-4.0517,-4.0602,-4.0652,-4.0727,-4.0804,-4.0875,-4.0972,-4.1054,-4.1138,-4.1224,-4.1261,-4.1282,-4.1281,-4.1279,-4.1291,-4.1276,-4.1259,-4.1263,-4.1263,-4.1263,-4.1263,-4.1263,-4.1263,-4.0196,-4.0277,-4.0324,-4.0437,-4.0499,-4.0584,-4.063,-4.0693,-4.0755,-4.0862,-4.0931,-4.0985,-4.1065,-4.1158,-4.1234,-4.1257,-4.1285,-4.128,-4.1307,-4.1291,-4.1292,-4.1293,-4.1277,-4.1285,-4.1285,-4.1317,-4.1317,-4.1317]},{"header":{"parameterUnit":"m.s-1","parameterCategory":1,"la1":30.2991,"la2":30.254,"lo1":-89.0895,"lo2":-89.0444,"dy":0.0017,"dx":0.0017,"nx":28,"ny":28,"refTime":"2024-06-01T09:00:00:Z","depth":0,"parameterNumber":3,"parameterNumberName":"V-component_of_WINDS"},"data":[0,0,0,0,0,0,0,0,0,0,0,0,0,0,0,0,0,0,0,0,0,0,0,0,0,0,0,0,0,0,0,0,0,0,0,0,0,0,0,0,0,0,0,0,0,0,0,0,0,0,0,0,0,0,0,0,0,0,5.9344,5.9347,0,5.9648,5.9651,5.9655,5.975,5.9749,5.9747,5.9746,6.0054,6.0063,6.0073,0,0,0,0,0,0,0,0,0,0,0,0,0,5.8846,5.8854,5.9344,5.9348,5.9352,5.9647,5.9651,5.9656,5.975,5.9749,5.9747,5.9745,6.0051,6.0062,6.0074,0,0,0,0,0,0,0,0,0,0,0,0,0,5.9097,5.8857,5.9343,5.9434,5.9446,5.9647,5.9652,5.9657,5.9751,5.9748,5.9746,5.9744,6.0047,6.0061,6.0075,6.0206,0,0,6.0119,6.0125,0,0,0,0,0,0,0,0,5.9082,5.9115,5.9417,5.9429,5.9441,5.9659,5.9589,5.9841,5.9751,5.9635,5.9746,5.9743,5.9924,5.9948,6.001,6.0221,6.0234,6.012,6.0129,6.0135,6.0139,0,0,0,0,0,0,0,5.9065,5.9103,5.9464,5.9422,5.9436,5.946,5.9494,5.9637,5.9788,5.9645,5.9652,5.9687,5.993,5.9996,6.0018,6.0238,6.012,6.0132,6.0141,6.0147,6.0576,6.0579,0,0,0,0,0,0,5.9032,5.9087,5.9454,5.9473,5.9253,5.9471,5.9508,5.9591,5.9786,5.9814,5.9689,5.9691,5.9973,6.0001,6.0029,6.0198,6.0135,6.0148,6.0156,6.0573,6.0576,6.058,0,0,0,0,0,0,5.9021,5.9064,5.9442,5.9283,5.9333,5.9482,5.9574,5.9598,5.9664,5.982,5.9847,5.9728,5.9972,6.0009,6.0163,6.0209,6.0155,6.0168,6.057,6.0574,6.0578,6.0534,0,0,0,0,0,0,5.9007,5.906,5.9111,5.9283,5.9341,5.957,5.9577,5.9606,5.9689,5.9694,5.9864,5.989,5.9973,6.0141,6.0177,6.0228,6.0179,6.0566,6.0572,6.0577,6.0531,6.0536,6.0539,0,0,0,0,0,5.8988,5.9085,5.9113,5.9156,5.9408,5.9573,5.9606,5.97,5.9692,5.9745,5.9846,5.9884,6.0199,6.0156,6.0197,6.0253,6.0564,6.057,6.0576,6.053,6.0535,6.0539,0,0,0,0,0,0,5.8912,5.9109,5.9142,5.9297,5.9418,5.9588,5.9657,5.9702,5.9827,5.9826,5.9938,5.9976,6.0121,6.0203,6.0151,6.0393,6.0383,6.0398,6.0333,6.034,6.0343,6.032,6.0191,0,0,0,0,0,5.8913,5.9031,5.9197,5.9317,5.9377,5.9507,5.9582,5.9645,5.9774,5.9825,5.9937,6.006,6.0187,6.0268,6.0393,6.0545,6.0584,6.0604,6.0608,6.061,6.0622,6.071,6.0722,6.06,6.06,6.06,0,0,5.8916,5.9039,5.9106,5.9305,5.9406,5.9526,5.9549,5.9674,5.9764,5.9844,5.9996,6.0083,6.0228,6.0382,6.0455,6.0454,6.0665,6.0619,6.0619,6.063,6.0718,6.0729,6.0739,6.0605,6.0604,6.0603,0,0,5.8984,5.9088,5.9201,5.9303,5.9456,5.9543,5.957,5.9736,5.9797,5.9952,6.0016,6.0125,6.034,6.0442,6.0522,6.0633,6.0674,6.0671,6.0691,6.0776,6.0785,6.0794,6.0835,6.0848,6.0681,6.0681,6.0681,0,5.8968,5.9152,5.9253,5.9377,5.9463,5.9544,5.966,5.9753,5.9939,5.9997,5.9994,6.0269,6.0372,6.0552,6.058,6.0641,6.0677,6.0651,6.0776,6.0786,6.0796,6.0836,6.0851,6.068,6.068,6.068,6.068,0,5.9126,5.9252,5.9325,5.9505,5.96,5.9719,5.9839,5.9923,5.9979,6.0066,6.0225,6.0352,6.0506,6.0554,6.0608,6.0743,6.0738,6.0754,6.0746,6.0804,6.0844,6.086,6.0678,6.0679,6.0679,6.0679,0,0,5.915,5.9387,5.9412,5.9496,5.9674,5.9773,5.9897,6.0049,6.012,6.0246,6.0353,6.0536,6.0554,6.0645,6.0712,6.0787,6.0869,6.0795,6.08,6.0805,6.1026,6.1012,6.1028,6.0898,6.0901,6.0904,6.1015,0,5.924,5.9465,5.9562,5.9742,5.9861,5.9941,6.005,6.017,6.0256,6.037,6.0465,6.0593,6.0606,6.0662,6.0739,6.0842,6.0915,6.0836,6.0999,6.1003,6.0959,6.1049,6.1034,6.1132,6.103,6.1033,6.1035,0,5.9375,5.9504,5.9696,5.9863,5.9916,6.0012,6.0161,6.0269,6.0408,6.0466,6.0569,6.0634,6.0768,6.0753,6.094,6.0884,6.0957,6.1018,6.1024,6.1042,6.1021,6.1069,6.1166,6.118,6.106,6.1058,6.1056,0,5.9374,5.9596,5.9741,5.981,6.0007,6.0073,6.0158,6.0296,6.0382,6.0512,6.057,6.0714,6.0792,6.0902,6.1005,6.0984,6.1183,6.1176,6.1235,6.1232,6.1271,6.1267,6.138,6.1319,6.1318,6.1318,6.1318,0,5.9464,5.9579,5.9744,5.9832,5.9964,6.0076,6.0203,6.0294,6.0417,6.0525,6.0604,6.0704,6.0834,6.0951,6.1032,6.1175,6.121,6.1261,6.1281,6.1254,6.1247,6.1302,6.1298,6.1322,6.1321,6.1321,6.132,0,5.9484,5.9599,5.9763,5.9937,5.9984,6.0074,6.0223,6.0313,6.0404,6.0541,6.0579,6.0722,6.0865,6.0979,6.1164,6.1219,6.137,6.1392,6.1322,6.1333,6.1386,6.1379,6.1537,6.1564,6.1484,6.1485,6.1485,0,5.9534,5.9624,5.981,5.9889,5.9974,6.0099,6.0189,6.0303,6.0393,6.0562,6.0632,6.078,6.0905,6.1129,6.1249,6.1392,6.1419,6.1465,6.144,6.1411,6.142,6.1413,6.1424,6.1466,6.1467,6.1467,6.1467,0,5.961,5.9663,5.979,5.9937,6.0042,6.0163,6.0286,6.0347,6.0484,6.0581,6.0729,6.0826,6.1017,6.1164,6.132,6.1409,6.1461,6.1474,6.1496,6.1468,6.1424,6.145,6.1329,6.147,6.1469,6.1469,6.1469,6.1469,5.9647,5.9732,5.9877,6.0016,6.0121,6.0235,6.0329,6.0434,6.0559,6.0724,6.0784,6.0936,6.1077,6.1293,6.1383,6.1504,6.1508,6.1538,6.1546,6.1552,6.1549,6.1406,6.1533,6.1533,6.1533,6.1533,6.1533,0,5.9728,5.9826,5.9953,6.0124,6.0233,6.0276,6.0415,6.0504,6.0637,6.0764,6.0887,6.1057,6.1201,6.1335,6.1485,6.1557,6.1585,6.1592,6.1588,6.1608,6.1536,6.1503,6.1567,6.1567,6.1567,6.1567,6.1567,6.1567,5.9782,5.9929,6.0001,6.0202,6.03,6.045,6.0526,6.0632,6.0735,6.0923,6.1043,6.113,6.1261,6.1422,6.1557,6.1592,6.1644,6.1645,6.1687,6.1617,6.1612,6.1608,6.1577,6.1656,6.1656,6.1749,6.175,6.175]}]]